Wind_Speed
5 5 4 4 4 4 4 5 5 5 5 5 5 5 5 5 6 5 5 6 6 5 5 5 5 5 4 4 4 4 4 6 6 6 6 7 8 8 9 10 10 10 11
5 4 4 4 4 3 3 4 4 4 5 5 5 5 5 5 5 5 6 6 6 6 6 6 6 6 5 5 5 5 6 6 7 7 7 7 8 8 9 10 10 10 10
5 4 4 4 3 3 3 3 4 4 5 5 5 5 5 5 5 5 6 6 6 6 6 6 5 5 5 5 5 6 6 6 6 7 7 7 7 8 9 9 9 10 10
5 4 4 4 3 3 3 3 4 4 5 5 5 5 6 5 5 5 6 6 7 7 7 7 7 7 6 7 7 7 7 6 6 7 7 7 8 8 9 9 9 9 9
4 4 4 3 3 3 3 3 4 4 5 6 6 6 6 5 6 7 7 7 7 7 8 8 7 7 8 8 7 7 7 7 7 7 8 8 8 9 9 9 9 9 9
4 4 3 3 3 3 3 3 4 4 5 6 6 6 6 7 7 7 7 7 7 7 8 8 7 8 8 8 8 8 8 8 8 8 8 8 8 9 9 9 9 9 10
3 2 3 3 3 4 3 2 3 3 4 4 5 6 7 7 8 8 8 7 8 8 8 8 8 8 8 9 8 8 8 8 8 8 8 9 8 8 9 9 10 10 10
2 1 2 2 2 2 2 2 2 3 3 4 5 6 7 8 8 9 8 8 8 8 9 9 9 9 9 9 9 9 8 8 8 8 7 8 8 9 9 10 10 11 11
1 2 2 2 1 1 2 2 3 3 3 4 5 6 7 8 8 8 8 8 8 9 9 10 10 10 10 10 10 10 9 9 8 8 8 9 9 9 9 9 10 10 11
1 1 2 2 2 2 2 2 3 4 4 5 6 6 7 7 8 7 8 8 9 9 10 10 10 10 10 10 10 10 10 9 9 9 10 10 10 10 10 11 11 11 12
1 2 2 3 3 3 3 3 4 5 6 6 6 6 7 7 7 7 8 9 9 10 10 10 11 11 11 11 11 11 10 10 11 11 11 12 11 11 11 12 12 13 13
2 3 3 3 4 4 4 5 5 6 6 6 6 7 7 8 8 9 9 9 10 11 11 11 11 11 11 11 12 11 11 11 11 12 13 13 13 13 13 13 13 14 14
3 4 4 4 5 5 6 7 7 7 7 7 7 7 8 9 10 10 10 11 11 11 11 12 12 11 12 12 12 13 13 13 13 13 14 14 15 15 15 15 15 15 16
4 5 6 6 6 6 7 7 8 8 8 8 8 8 9 10 11 11 11 11 11 12 12 13 13 13 13 14 14 14 14 15 15 15 15 16 17 17 17 17 17 18 18
6 7 7 8 8 8 9 9 9 10 10 10 10 10 11 12 12 12 12 12 12 12 13 14 14 14 15 15 15 15 15 15 16 16 16 17 18 18 18 19 19 19 19
8 8 9 10 10 11 11 11 11 11 12 12 12 13 13 14 14 14 13 13 14 14 14 15 16 16 16 16 16 16 16 17 17 17 17 18 18 19 19 19 19 19 20
9 10 11 11 12 12 12 12 13 14 14 15 15 16 16 16 15 15 15 15 16 16 16 16 16 17 17 18 18 18 18 18 19 19 19 19 20 20 21 21 20 21 21
11 12 12 13 13 14 14 14 15 15 16 16 17 18 18 18 18 18 17 17 17 18 18 18 18 19 19 20 20 20 20 20 21 21 21 21 21 22 22 23 23 23 23
14 14 14 15 15 15 16 16 17 17 17 18 18 19 19 20 20 20 20 20 20 20 20 20 20 21 22 22 22 22 22 23 23 23 24 24 24 24 24 24 24 25 25
16 16 17 17 17 17 18 18 19 19 19 19 19 19 20 20 21 21 21 22 23 23 22 23 22 23 24 25 25 24 24 25 26 26 26 27 27 27 27 26 26 26 27
18 18 19 19 19 19 20 20 20 21 21 20 21 21 22 21 22 23 24 24 25 25 25 25 25 25 26 27 27 27 27 27 28 28 28 28 29 29 29 28 28 29 29
20 20 21 21 21 21 21 22 22 22 23 23 23 23 23 23 24 24 25 25 26 27 27 28 27 28 28 29 30 29 29 29 29 30 30 31 31 31 30 30 31 31 31
21 22 23 23 23 23 23 24 24 25 25 25 24 24 25 25 25 26 26 27 28 28 29 29 30 30 30 31 32 31 31 31 31 32 33 32 33 33 33 33 33 33 33
23 24 24 25 24 24 24 25 26 26 27 26 26 26 26 26 27 28 28 28 30 30 30 31 32 32 32 33 33 33 32 33 33 34 34 34 34 34 34 34 34 35 35
25 26 26 25 25 25 26 27 27 27 27 27 27 27 27 28 28 29 29 29 30 31 32 33 33 34 34 34 35 34 34 34 34 34 35 35 35 35 35 35 35 35 35
27 27 27 27 27 27 27 27 28 29 29 29 28 29 29 30 30 30 30 30 31 32 33 34 34 35 35 35 36 36 36 36 36 36 36 36 36 36 35 35 35 35 36
Wind_Direction
104 99 91 78 69 68 58 45 43 41 38 31 24 20 20 18 24 14 12 11 13 8 4 350 341 341 329 323 314 305 300 295 283 281 275 269 265 262 257 255 257 260 262
104 98 84 78 68 58 46 42 38 34 34 31 23 20 20 14 13 13 5 4 6 3 358 355 343 338 330 315 304 304 297 292 289 282 275 272 269 262 258 261 263 263 263
98 93 80 75 62 52 45 39 34 34 33 29 22 17 14 9 6 8 7 5 359 352 350 347 343 332 324 314 315 312 307 300 297 294 286 278 272 266 265 264 261 263 266
94 88 82 69 51 43 43 40 40 35 30 29 26 20 11 4 359 4 3 1 357 356 353 352 346 341 334 328 325 318 314 311 304 301 291 282 277 273 268 265 265 265 267
91 88 82 71 59 51 49 48 44 40 35 31 25 21 14 5 359 1 2 2 1 359 356 353 347 343 337 331 326 320 318 312 308 305 298 289 283 278 273 272 272 272 272
79 77 75 76 60 49 47 40 42 39 37 31 26 21 16 11 6 2 356 356 359 360 359 354 347 341 334 329 324 318 314 311 309 306 302 297 289 282 278 275 276 273 271
74 74 78 70 56 49 44 38 33 28 30 23 20 16 9 4 5 2 358 359 358 355 354 351 347 343 337 331 326 318 311 306 305 306 302 297 293 290 286 282 280 277 274
62 65 74 67 59 34 28 35 25 15 10 1 358 354 354 354 357 1 1 360 356 355 354 351 348 347 343 334 328 323 318 310 307 307 305 303 300 297 294 290 285 281 277
40 37 35 30 5 351 360 355 0 352 346 342 345 346 346 345 349 353 357 357 354 351 348 346 343 341 341 336 329 325 320 315 311 309 307 306 304 300 298 296 293 288 285
355 332 338 349 334 320 321 326 332 328 322 324 328 334 340 344 345 345 343 341 343 347 350 348 346 346 344 340 334 330 323 317 312 310 309 308 304 300 296 294 294 293 290
313 307 311 317 316 318 320 313 317 318 316 316 322 330 337 338 337 339 342 340 342 342 341 342 344 345 343 340 337 334 328 321 317 314 312 312 309 300 295 293 294 292 290
312 299 304 310 316 311 309 314 311 310 314 315 318 323 328 329 329 329 329 330 331 332 333 333 335 338 338 338 336 332 329 325 320 316 312 310 309 305 300 295 292 292 290
302 300 301 307 308 304 303 304 310 305 304 309 311 316 319 320 320 320 321 322 322 325 327 328 329 331 331 331 330 327 322 320 318 315 311 308 306 303 300 298 294 290 288
296 301 300 302 299 297 298 301 303 303 299 301 304 309 312 314 316 316 316 316 317 319 321 320 321 324 324 323 320 320 320 318 315 312 309 306 305 304 301 299 296 293 291
290 295 295 298 296 295 294 294 294 294 295 297 299 302 306 310 314 313 310 310 314 316 316 316 315 315 316 318 318 318 316 318 315 311 308 306 304 303 302 301 300 296 291
292 299 293 290 290 290 291 290 290 290 292 296 300 302 302 304 307 309 308 308 310 311 312 312 312 312 313 313 314 314 313 313 314 314 311 307 305 303 302 301 299 298 295
294 295 298 288 289 290 290 290 290 290 289 290 293 297 299 300 300 303 305 306 307 307 307 308 308 308 310 310 308 307 307 308 308 309 310 309 306 304 302 301 299 298 296
289 293 295 292 289 289 289 291 291 291 292 292 292 293 294 297 298 298 299 302 302 303 304 305 304 304 304 304 304 303 302 302 304 304 304 305 305 305 304 302 299 297 295
288 290 291 290 290 291 291 291 291 292 292 293 294 295 295 295 297 297 296 297 298 299 300 301 302 302 302 302 301 300 299 299 299 299 299 300 300 301 300 299 299 298 297
287 288 288 289 290 290 289 289 291 292 294 294 296 297 296 295 296 296 294 295 296 296 296 297 298 300 300 300 299 298 298 298 298 298 297 297 297 297 297 296 296 296 296
287 288 289 290 290 290 289 291 290 293 294 293 294 295 295 295 295 295 294 293 294 294 294 295 295 296 299 299 298 297 297 297 297 297 297 296 296 296 297 295 295 295 294
286 287 288 289 289 289 289 290 290 290 292 292 293 294 295 294 294 294 294 292 293 293 292 292 293 294 296 297 297 297 297 297 296 296 296 295 294 295 296 295 295 294 294
286 287 288 287 286 287 288 289 288 289 289 291 291 292 293 294 295 295 294 293 292 293 292 291 294 295 295 295 296 296 297 297 297 296 295 295 294 292 294 295 293 292 292
285 285 286 286 286 287 289 288 288 288 289 290 291 292 292 292 293 293 293 294 293 294 294 294 294 294 294 295 296 296 297 297 296 296 296 295 293 293 294 294 293 292 291
283 285 285 287 287 289 290 289 288 288 289 289 290 292 292 292 293 293 294 295 297 296 295 296 294 293 294 294 295 295 296 297 297 298 297 296 294 294 293 293 293 292 291
284 286 286 286 287 289 289 289 289 288 289 289 289 290 292 292 292 293 294 294 296 297 297 296 296 294 293 294 295 295 294 295 296 296 297 297 296 295 295 295 294 293 292
Height
5895 5896 5896 5896 5896 5895 5895 5895 5894 5893 5893 5892 5891 5890 5889 5888 5887 5885 5885 5884 5883 5882 5881 5881 5880 5879 5878 5878 5877 5877 5876 5876 5876 5876 5876 5876 5876 5876 5876 5876 5877 5877 5878
5896 5896 5897 5897 5896 5896 5896 5895 5895 5894 5893 5892 5892 5891 5890 5889 5888 5887 5886 5885 5884 5883 5882 5881 5880 5879 5878 5877 5876 5876 5875 5875 5874 5874 5874 5874 5874 5874 5874 5874 5875 5875 5875
5897 5897 5897 5897 5897 5897 5896 5896 5895 5895 5894 5893 5892 5891 5890 5890 5888 5887 5887 5885 5884 5883 5882 5881 5879 5878 5877 5877 5876 5875 5874 5874 5873 5872 5872 5872 5872 5872 5872 5872 5872 5873 5873
5898 5898 5898 5898 5898 5897 5897 5897 5896 5895 5895 5894 5893 5892 5891 5890 5889 5888 5887 5886 5884 5883 5882 5880 5879 5878 5877 5876 5875 5874 5873 5872 5872 5871 5871 5870 5870 5870 5870 5870 5870 5870 5870
5899 5899 5899 5898 5898 5898 5898 5897 5897 5896 5895 5894 5893 5892 5891 5890 5889 5889 5887 5886 5885 5883 5882 5881 5879 5878 5877 5876 5875 5873 5872 5871 5870 5870 5869 5869 5868 5868 5868 5868 5868 5868 5868
5899 5899 5899 5899 5898 5898 5898 5897 5897 5896 5896 5895 5894 5893 5892 5891 5890 5888 5887 5886 5885 5883 5882 5881 5879 5878 5876 5875 5874 5872 5871 5870 5869 5868 5868 5867 5866 5866 5866 5866 5866 5866 5866
5900 5900 5899 5899 5898 5898 5898 5898 5897 5896 5896 5895 5895 5893 5892 5891 5890 5889 5887 5886 5885 5883 5882 5880 5879 5878 5876 5874 5873 5871 5870 5869 5868 5867 5866 5865 5864 5864 5864 5864 5864 5864 5864
5900 5900 5900 5899 5899 5898 5898 5898 5897 5896 5896 5895 5895 5894 5893 5892 5890 5889 5887 5886 5885 5883 5882 5880 5878 5877 5875 5873 5872 5870 5869 5867 5866 5865 5864 5864 5863 5863 5862 5862 5861 5861 5861
5900 5900 5900 5899 5899 5898 5898 5898 5897 5896 5896 5895 5895 5894 5893 5891 5890 5889 5887 5886 5884 5883 5881 5879 5877 5876 5874 5872 5870 5869 5867 5866 5865 5864 5863 5862 5861 5861 5860 5860 5859 5859 5859
5900 5900 5899 5899 5899 5898 5898 5897 5897 5896 5896 5895 5894 5893 5892 5891 5890 5888 5887 5885 5884 5882 5880 5879 5877 5875 5873 5871 5869 5868 5866 5865 5864 5863 5861 5860 5859 5858 5858 5857 5856 5856 5856
5900 5899 5899 5899 5898 5898 5897 5897 5896 5896 5895 5894 5893 5892 5891 5890 5889 5888 5886 5885 5883 5881 5880 5878 5876 5874 5872 5870 5868 5867 5865 5864 5862 5861 5860 5858 5857 5856 5855 5854 5853 5853 5852
5900 5899 5898 5898 5897 5897 5897 5896 5895 5895 5894 5893 5892 5891 5890 5889 5888 5886 5885 5884 5882 5880 5878 5877 5875 5873 5871 5869 5867 5866 5864 5862 5861 5859 5858 5856 5855 5853 5852 5851 5850 5849 5849
5899 5899 5898 5897 5896 5896 5896 5895 5894 5893 5892 5892 5891 5890 5889 5888 5886 5885 5884 5882 5881 5879 5877 5875 5873 5871 5870 5868 5866 5864 5862 5860 5858 5857 5855 5853 5852 5850 5849 5848 5847 5846 5845
5898 5898 5897 5896 5895 5895 5894 5893 5892 5892 5891 5890 5889 5888 5887 5886 5884 5883 5882 5881 5879 5877 5875 5873 5871 5869 5868 5866 5864 5862 5860 5858 5856 5854 5852 5850 5849 5847 5846 5844 5843 5842 5841
5897 5896 5896 5895 5894 5893 5892 5891 5891 5890 5889 5888 5887 5886 5885 5884 5882 5881 5879 5878 5877 5876 5874 5872 5869 5867 5865 5863 5861 5859 5857 5855 5853 5851 5849 5847 5845 5843 5842 5840 5838 5837 5836
5896 5895 5894 5893 5892 5891 5890 5889 5888 5887 5886 5885 5884 5883 5882 5881 5879 5878 5876 5875 5874 5873 5871 5869 5867 5864 5862 5860 5858 5856 5854 5852 5850 5848 5845 5843 5841 5839 5837 5835 5834 5832 5830
5893 5892 5891 5890 5889 5888 5887 5886 5885 5884 5883 5882 5880 5879 5878 5877 5876 5874 5873 5871 5870 5869 5867 5866 5863 5861 5859 5856 5854 5852 5850 5848 5846 5844 5841 5839 5837 5835 5833 5831 5829 5827 5825
5890 5889 5888 5887 5886 5885 5884 5883 5882 5881 5879 5878 5877 5875 5874 5872 5871 5870 5868 5867 5866 5864 5863 5861 5859 5857 5854 5852 5849 5847 5845 5843 5841 5839 5836 5834 5832 5830 5827 5825 5823 5821 5820
5887 5886 5885 5884 5882 5881 5880 5879 5878 5877 5875 5874 5872 5871 5869 5868 5866 5865 5863 5862 5861 5859 5857 5855 5854 5851 5849 5847 5845 5842 5840 5837 5835 5833 5831 5829 5826 5824 5822 5820 5818 5816 5813
5883 5882 5881 5879 5878 5877 5876 5874 5873 5872 5870 5869 5867 5866 5864 5863 5861 5859 5858 5856 5855 5853 5851 5849 5847 5845 5843 5840 5838 5836 5834 5831 5829 5826 5824 5822 5820 5817 5815 5813 5811 5809 5806
5878 5877 5876 5875 5873 5872 5870 5869 5868 5866 5865 5864 5862 5860 5859 5857 5855 5853 5851 5850 5848 5846 5844 5842 5840 5838 5836 5834 5831 5829 5827 5824 5822 5819 5817 5814 5812 5810 5807 5805 5803 5801 5798
5873 5872 5871 5869 5868 5866 5865 5863 5862 5860 5859 5857 5856 5854 5852 5851 5849 5846 5844 5843 5841 5839 5837 5835 5833 5831 5829 5826 5824 5821 5819 5816 5814 5812 5809 5806 5804 5801 5799 5796 5794 5792 5789
5868 5866 5865 5863 5862 5860 5859 5857 5855 5854 5852 5850 5849 5847 5846 5844 5842 5839 5837 5835 5833 5831 5829 5827 5825 5823 5820 5818 5815 5813 5810 5808 5805 5803 5800 5797 5795 5792 5790 5787 5784 5782 5780
5861 5860 5858 5857 5855 5854 5852 5850 5849 5847 5845 5843 5842 5840 5838 5836 5834 5832 5830 5827 5825 5823 5821 5818 5816 5814 5811 5809 5806 5804 5801 5799 5796 5793 5790 5788 5785 5783 5780 5777 5774 5772 5769
5854 5852 5851 5850 5848 5847 5845 5843 5841 5839 5838 5836 5834 5833 5831 5829 5826 5824 5822 5819 5817 5815 5812 5809 5807 5804 5802 5799 5797 5794 5792 5789 5787 5784 5780 5778 5775 5773 5770 5767 5764 5761 5759
5847 5846 5845 5843 5841 5840 5838 5836 5834 5832 5830 5828 5827 5825 5823 5820 5818 5815 5813 5811 5808 5806 5803 5800 5797 5794 5792 5789 5787 5784 5782 5779 5776 5774 5771 5767 5765 5762 5760 5757 5753 5750 5747